User: anonymous   Login
Location: Binningen
(47.7924°N, 8.7261°E)
Time: 02:19:48
(UTC+00:00)
Language:

Cosmos 1733 Rocket - Orbit

View from above orbital plane
View from above orbital plane
View from above satellite
View from above satellite

Ground track
Ground track

The orbit data is extracted from the following two-line orbital elements,

1 16612U 86018B   21208.58751735  .00000098  00000-0  88667-5 0  9990
2 16612  82.5189 327.6487 0016384 234.2458 136.2812 14.84311525793060
Epoch (UTC): 27 July 2021 14:06:01
Eccentricity: 0.0016384
inclination: 82.5189°
perigee height: 604 km
apogee height: 627 km
right ascension of ascending node: 327.6487°
argument of perigee: 234.2458°
revolutions per day: 14.84311525
mean anomaly at epoch: 136.2812°
orbit number at epoch: 79306

The dashed part of the orbit path shows where the satellite is in the earth's shadow,  

DLR